Location: DARK SKY Beskydy - Park tmavé oblohy, www.darkskybeskydy.cz
(49.4926°N, 18.5016°E)
Time: 15:03:59
(UTC+02:00)

Courier 1B - Pass Details

Date: 22 February 2024
Orbit: 962 x 1208 km, 28.3° (Epoch: 12 April)

Event Time Altitude Azimuth Distance (km) Brightness Sun altitude
Exits shadow 04:15:52 10° 187° (S) 2,789 9.7 -24.6°
Drops below altitude 10° 04:16:23 10° 183° (S) 2,801 9.7 -24.5°
Sets 04:22:42 0° 141° (SE) 3,836 11.0 -23.5°
